Location: Demmingen
(48.6757°N, 10.4375°E)
Time: 10:02:06
(UTC+00:00)

Cosmos 2322 Rocket - Pass Details

Date: 23 May 2024
Orbit: 832 x 850 km, 71.0° (Epoch: 15 June)

Event Time Altitude Azimuth Distance (km) Brightness Sun altitude
Rises 00:51:21 0° 333° (NNW) 3,400 5.9 -17.4°
Reaches altitude 10° 00:53:51 10° 338° (NNW) 2,465 5.2 -17.3°
Maximum altitude 00:59:26 58° 57° (ENE) 977 2.8 -16.9°
Drops below altitude 10° 01:05:00 10° 137° (SE) 2,462 4.4 -16.5°
Sets 01:07:29 0° 141° (SE) 3,396 5.1 -16.3°
